Newport, VT

12:52 PM EDT on May 21, 2018 (GMT -0400)
Newport State

Weather History for KEFK - March, 2013

Change the Weather History Date:

Sunday, March 31, 2013

  Actual Average Record
Temperature  
Mean Temperature 37 °F -  
Max Temperature 51 °F 47 °F 69 °F (1986)
Min Temperature 24 °F 26 °F -2 °F (1954)
Degree Days  
Heating Degree Days 28    
Moisture  
Dew Point 19 °F    
Average Humidity 49    
Maximum Humidity 78    
Minimum Humidity 27    
Precipitation  
Precipitation 0.00 in - - ()
Sea Level Pressure  
Sea Level Pressure 29.92 in    
Wind  
Wind Speed 7 mph (South)    
Max Wind Speed 18 mph    
Max Gust Speed 26 mph    
Visibility 10 miles    
Events Rain    
Averages and records for this station are not official NWS values.
T = Trace of Precipitation, MM = Missing Value Source: NWS Daily Summary

Daily Weather History Graph

Daily Weather History Graph

Search for Another Location

Airport or City:

Astronomy

Mar. 31, 2013 Rise Set
Actual Time 6:31 AM EDT 7:15 PM EDT
Civil Twilight 6:01 AM EDT 7:45 PM EDT
Nautical Twilight 5:26 AM EDT 8:20 PM EDT
Astronomical Twilight 4:49 AM EDT 8:57 PM EDT
Moon No Moon Rise 9:05 AM EDT (3/31)
Length of Visible Light 13h 43m
Length of Day
12h 44m
Waning Gibbous, 78% of the Moon is Illuminated
Mar 31
Waning Gibbous
Apr 3
Last Quarter
Apr 10
New
Apr 18
First Quarter
Apr 25
Full

Hourly Weather History & Observations

Time (EDT) Temp. Windchill Dew Point Humidity Pressure Visibility Wind Dir Wind Speed Gust Speed Precip Events Conditions
12:15 AM 25.2 °F - 17.6 °F 73% 30.07 in 10.0 mi Calm Calm - N/A   Clear
12:35 AM 26.2 °F 19.6 °F 18.7 °F 73% 30.06 in 10.0 mi SW 5.8 mph - N/A   Clear
12:55 AM 26.6 °F 20.0 °F 17.4 °F 68% 30.07 in 10.0 mi SSW 5.8 mph - N/A   Clear
1:15 AM 27.3 °F 22.0 °F 16.7 °F 64% 30.07 in 10.0 mi SSW 4.6 mph - N/A   Clear
1:35 AM 26.2 °F 22.1 °F 17.2 °F 69% 30.08 in 10.0 mi South 3.5 mph - N/A   Clear
1:55 AM 27.0 °F 23.0 °F 17.4 °F 67% 30.08 in 10.0 mi South 3.5 mph - N/A   Clear
2:15 AM 27.3 °F - 16.5 °F 64% 30.07 in 10.0 mi Calm Calm - N/A   Clear
2:35 AM 26.4 °F 20.9 °F 16.9 °F 67% 30.06 in 10.0 mi SSW 4.6 mph - N/A   Clear
2:55 AM 25.5 °F 18.7 °F 16.7 °F 69% 30.07 in 10.0 mi SSW 5.8 mph - N/A   Clear
3:15 AM 25.0 °F 19.3 °F 17.4 °F 73% 30.07 in 10.0 mi SSW 4.6 mph - N/A   Clear
3:35 AM 25.0 °F 18.1 °F 16.9 °F 71% 30.07 in 10.0 mi SSW 5.8 mph - N/A   Clear
3:55 AM 24.4 °F 17.5 °F 17.1 °F 73% 30.07 in 10.0 mi SSW 5.8 mph - N/A   Clear
4:15 AM 24.3 °F 17.3 °F 16.7 °F 73% 30.06 in 10.0 mi SSW 5.8 mph - N/A   Clear
4:35 AM 24.3 °F 16.3 °F 17.4 °F 75% 30.06 in 10.0 mi SSW 6.9 mph - N/A   Clear
4:55 AM 24.3 °F 15.4 °F 17.1 °F 74% 30.06 in 10.0 mi SW 8.1 mph - N/A   Clear
5:15 AM 25.2 °F 18.3 °F 16.5 °F 70% 30.05 in 10.0 mi South 5.8 mph - N/A   Clear
5:35 AM 24.3 °F 16.3 °F 16.7 °F 73% 30.05 in 10.0 mi SW 6.9 mph - N/A   Clear
5:55 AM 24.8 °F 16.1 °F 16.7 °F 71% 30.05 in 10.0 mi SSW 8.1 mph - N/A   Clear
6:15 AM 24.4 °F 18.6 °F 16.5 °F 72% 30.04 in 10.0 mi SSW 4.6 mph - N/A   Clear
6:35 AM 24.6 °F 18.8 °F 16.3 °F 71% 30.04 in 10.0 mi SSW 4.6 mph - N/A   Clear
6:55 AM 25.5 °F 19.9 °F 16.3 °F 68% 30.04 in 10.0 mi SSW 4.6 mph - N/A   Clear
7:15 AM 26.2 °F 19.6 °F 17.8 °F 70% 30.03 in 10.0 mi SW 5.8 mph - N/A   Clear
7:35 AM 26.8 °F 21.4 °F 17.8 °F 69% 30.02 in 10.0 mi South 4.6 mph - N/A   Clear
7:55 AM 29.1 °F 25.4 °F 18.7 °F 65% 30.02 in 10.0 mi SSW 3.5 mph - N/A   Clear
8:15 AM 29.3 °F 25.6 °F 18.5 °F 64% 30.02 in 10.0 mi SSW 3.5 mph - N/A   Clear
8:35 AM 30.9 °F 26.2 °F 18.7 °F 61% 30.02 in 10.0 mi SW 4.6 mph - N/A   Clear
8:55 AM 32.9 °F 29.8 °F 20.1 °F 59% 30.01 in 10.0 mi South 3.5 mph - N/A   Clear
9:15 AM 37.0 °F 33.3 °F 17.6 °F 45% 30.01 in 10.0 mi SSW 4.6 mph - N/A   Clear
9:35 AM 36.9 °F 34.3 °F 18.3 °F 47% 30.00 in 10.0 mi SW 3.5 mph - N/A   Clear
9:55 AM 39.6 °F 35.4 °F 18.3 °F 42% 30.00 in 10.0 mi SSW 5.8 mph - N/A   Clear
10:15 AM 41.7 °F 37.3 °F 19.6 °F 41% 29.99 in 10.0 mi SSW 6.9 mph - N/A   Clear
10:55 AM 44.4 °F 40.0 °F 18.5 °F 35% 29.98 in 10.0 mi South 8.1 mph - N/A   Clear
11:15 AM 45.7 °F 40.6 °F 19.4 °F 35% 29.98 in 10.0 mi South 10.4 mph 17.3 mph N/A   Clear
11:35 AM 45.9 °F 41.7 °F 20.1 °F 36% 29.97 in 10.0 mi South 8.1 mph 17.3 mph N/A   Clear
11:55 AM 45.9 °F 39.7 °F 20.8 °F 37% 29.97 in 10.0 mi SSW 13.8 mph 18.4 mph N/A   Clear
12:15 PM 47.3 °F - 21.0 °F 35% 29.95 in 10.0 mi SSW 11.5 mph 17.3 mph N/A   Clear
12:35 PM 48.2 °F - 20.3 °F 33% 29.94 in 10.0 mi SSW 12.7 mph 16.1 mph N/A   Clear
12:55 PM 48.4 °F - 19.4 °F 32% 29.93 in 10.0 mi South 8.1 mph - N/A   Clear
1:15 PM 48.6 °F - 20.5 °F 33% 29.92 in 10.0 mi SSE 9.2 mph - N/A   Clear
1:35 PM 50.0 °F - 19.4 °F 30% 29.91 in 10.0 mi SE 13.8 mph 18.4 mph N/A   Clear
1:55 PM 49.3 °F - 20.5 °F 32% 29.90 in 10.0 mi South 5.8 mph 18.4 mph N/A   Clear
2:15 PM 50.9 °F - 19.0 °F 28% 29.89 in 10.0 mi SSW 16.1 mph 21.9 mph N/A   Clear
2:35 PM 50.9 °F - 18.1 °F 27% 29.88 in 10.0 mi SSE 16.1 mph 19.6 mph N/A   Clear
2:55 PM 50.7 °F - 18.0 °F 27% 29.87 in 10.0 mi SSE 16.1 mph 21.9 mph N/A   Clear
3:15 PM 49.1 °F - 18.1 °F 29% 29.86 in 10.0 mi SSE 13.8 mph 23.0 mph N/A   Clear
3:35 PM 49.1 °F - 17.6 °F 29% 29.85 in 10.0 mi SSE 11.5 mph 18.4 mph N/A   Mostly Cloudy
3:55 PM 49.6 °F - 18.0 °F 29% 29.84 in 10.0 mi South 10.4 mph 16.1 mph N/A   Scattered Clouds
4:15 PM 49.6 °F - 19.6 °F 31% 29.83 in 10.0 mi SSE 10.4 mph - N/A   Clear
4:35 PM 49.5 °F - 20.3 °F 32% 29.82 in 10.0 mi SSE 12.7 mph 17.3 mph N/A   Clear
4:55 PM 49.5 °F - 18.9 °F 30% 29.81 in 10.0 mi SSE 10.4 mph - N/A   Scattered Clouds
5:15 PM 49.1 °F - 18.5 °F 30% 29.80 in 10.0 mi SSE 11.5 mph 23.0 mph N/A   Scattered Clouds
5:35 PM 48.7 °F - 18.7 °F 30% 29.80 in 10.0 mi SSE 8.1 mph 18.4 mph N/A   Scattered Clouds
5:55 PM 48.7 °F - 18.1 °F 30% 29.80 in 10.0 mi SSE 13.8 mph 18.4 mph N/A   Clear
6:15 PM 48.6 °F - 17.6 °F 29% 29.79 in 10.0 mi SSE 13.8 mph 21.9 mph N/A   Clear
6:35 PM 48.2 °F - 18.0 °F 30% 29.79 in 10.0 mi South 12.7 mph 18.4 mph N/A   Clear
6:55 PM 48.0 °F - 17.8 °F 30% 29.79 in 10.0 mi South 10.4 mph 18.4 mph N/A   Clear
7:15 PM 46.6 °F - 19.6 °F 34% 29.78 in 10.0 mi SSE 9.2 mph - N/A   Scattered Clouds
7:35 PM 46.4 °F 41.9 °F 18.9 °F 33% 29.77 in 10.0 mi SSE 9.2 mph - N/A   Scattered Clouds
7:55 PM 46.2 °F 41.2 °F 19.6 °F 35% 29.77 in 10.0 mi SSE 10.4 mph - N/A   Mostly Cloudy
8:15 PM 45.1 °F 39.5 °F 20.8 °F 38% 29.77 in 10.0 mi SSE 11.5 mph - N/A   Overcast
8:35 PM 45.7 °F 41.0 °F 20.1 °F 36% 29.76 in 10.0 mi SSE 9.2 mph - N/A   Overcast
8:55 PM 46.0 °F 40.2 °F 19.2 °F 34% 29.76 in 10.0 mi South 12.7 mph - N/A   Overcast
9:15 PM 46.2 °F 41.7 °F 19.4 °F 34% 29.76 in 10.0 mi South 9.2 mph - N/A   Overcast
9:35 PM 45.7 °F 41.0 °F 20.3 °F 37% 29.75 in 10.0 mi SSE 9.2 mph - N/A   Overcast
9:55 PM 44.6 °F 40.2 °F 21.6 °F 40% 29.75 in 10.0 mi SSE 8.1 mph - N/A   Overcast
10:15 PM 45.1 °F 41.4 °F 21.4 °F 39% 29.74 in 10.0 mi South 6.9 mph - N/A   Overcast
10:35 PM 45.3 °F 38.7 °F 25.0 °F 45% 29.74 in 10.0 mi South 15.0 mph 23.0 mph N/A   Overcast
10:55 PM 44.1 °F 36.2 °F 29.8 °F 57% 29.75 in 10.0 mi SSE 18.4 mph 25.3 mph N/A   Light Drizzle
11:15 PM 41.9 °F 34.6 °F 32.2 °F 68% 29.74 in 10.0 mi South 13.8 mph 26.5 mph N/A   Light Drizzle
11:35 PM 41.0 °F 35.2 °F 32.9 °F 73% 29.74 in 10.0 mi South 9.2 mph - N/A Rain Light Rain
11:55 PM 39.9 °F 32.9 °F 33.4 °F 78% 29.73 in 10.0 mi South 11.5 mph 16.1 mph N/A Rain Light Rain